Starlink 35776

operational
NORAD ID: 66282 Int'l Des: 2025-247 Owner: SPXS Country: US Constellation: starlink
NOTLE

关于 Starlink 35776

正在加载描述...

实时位置

正在加载3D地球...

即将过境

高度历史

Altitude vs Time

uPlot chart will show altitude changes over time

两行轨道根数

1 66282U 25247T 25352.33335648 .00013106 00000-0 33722-3 0 9997
2 66282 53.1576 210.9243 0001411 86.6756 328.8888 15.39605367 5958
Epoch: Dec 18, 2025 • Age: 7 hours

当前状态

高度 451.0 km
速度 7.64 km/s
星下点 -13.12°S, 120.23°W
发射日期 Oct 31, 2025
运行时间 0.1 years
类型 internet

技术详情

分类 Payload
质量 575.00 kg
干质量 530.00 kg
总质量 575.00 kg
长度 0.30 m
直径 4.10 m
跨度 29.00 m
形状 Box + pan
制造商 SPXS
平台类型 Starlink V2MO
阶段状态 In Orbit
所有者/国家 SPXS/US

大型星座

Loading constellations...